Location: Peebles
(55.6412°N, 3.1714°W)
Time: 08:49:06
(UTC+00:00)

MOZHAYETS 4 - Visible Passes

Search period start: 30 November 2022 00:00
Search period end: 10 December 2022 00:00
Orbit: 659 x 678 km, 98.2° (Epoch: 29 November)

Date Brightness Start Highest point End Pass type
(mag) Time Alt. Az. Time Alt. Az. Time Alt. Az.
30 Nov 9.7 17:18:03 10° N 17:21:46 25° WNW 17:25:30 10° WSW visible
01 Dec 10.3 17:50:55 10° NNW 17:53:40 16° NW 17:56:27 10° W visible
02 Dec 8.9 16:45:09 10° N 16:49:28 42° WNW 16:53:47 10° SW visible
02 Dec 10.6 18:24:57 10° NW 18:25:27 10° NW 18:25:57 10° NW visible
03 Dec 9.7 17:17:44 10° N 17:21:30 25° WNW 17:25:14 10° WSW visible
04 Dec 10.3 17:50:36 10° NNW 17:53:24 16° NW 17:56:11 10° W visible
05 Dec 8.9 16:44:51 10° N 16:49:11 42° WNW 16:53:30 10° SW visible
05 Dec 10.6 18:24:31 10° NW 18:25:10 10° NW 18:25:49 10° NW visible
06 Dec 9.7 17:17:26 10° N 17:21:12 26° WNW 17:24:59 10° WSW visible
07 Dec 10.3 17:50:17 10° NNW 17:53:06 16° NW 17:55:55 10° W visible
08 Dec 8.9 16:44:32 10° N 16:48:53 43° WNW 16:53:13 10° SW visible
08 Dec 10.6 18:24:06 10° NNW 18:24:53 10° NW 18:25:40 10° NW visible
09 Dec 9.7 17:17:06 10° N 17:20:54 26° WNW 17:24:42 10° WSW visible
